[[{"header":{"parameterUnit":"m.s-1","parameterCategory":1,"la1":30.2991,"la2":30.254,"lo1":-89.0895,"lo2":-89.0444,"dy":0.0017,"dx":0.0017,"nx":28,"ny":28,"refTime":"2025-07-25T03:00:00:Z","depth":0,"parameterNumber":2,"parameterNumberName":"U-component_of_WINDS"},"data":[0,0,0,0,0,0,0,0,0,0,0,0,0,0,0,0,0,0,0,0,0,0,0,0,0,0,0,0,0,0,0,0,0,0,0,0,0,0,0,0,0,0,0,0,0,0,0,0,0,0,0,0,0,0,0,0,0,0,-3.7511,-3.7511,0,-3.7538,-3.7538,-3.7538,-3.7517,-3.7516,-3.7515,-3.7514,-3.754,-3.7541,-3.7543,0,0,0,0,0,0,0,0,0,0,0,0,0,-3.744,-3.7441,-3.7511,-3.7511,-3.7512,-3.7538,-3.7538,-3.7538,-3.7517,-3.7516,-3.7515,-3.7514,-3.7539,-3.7541,-3.7543,0,0,0,0,0,0,0,0,0,0,0,0,0,-3.7469,-3.7441,-3.7511,-3.7504,-3.7504,-3.7538,-3.7538,-3.7539,-3.7517,-3.7516,-3.7515,-3.7513,-3.7539,-3.7541,-3.7543,-3.7584,0,0,-3.755,-3.7551,0,0,0,0,0,0,0,0,-3.7467,-3.7471,-3.7505,-3.7505,-3.7504,-3.7523,-3.7522,-3.7554,-3.7518,-3.7512,-3.7514,-3.7513,-3.7535,-3.7537,-3.7545,-3.7585,-3.7586,-3.755,-3.7552,-3.7553,-3.7553,0,0,0,0,0,0,0,-3.7465,-3.747,-3.7522,-3.7505,-3.7505,-3.7499,-3.7502,-3.7528,-3.7531,-3.7513,-3.7511,-3.7515,-3.7535,-3.7543,-3.7546,-3.7587,-3.755,-3.7552,-3.7554,-3.7554,-3.7661,-3.7663,0,0,0,0,0,0,-3.7464,-3.7469,-3.7521,-3.7522,-3.7482,-3.7502,-3.7505,-3.7518,-3.753,-3.7531,-3.7516,-3.7514,-3.754,-3.7543,-3.7547,-3.7595,-3.7553,-3.7555,-3.7556,-3.766,-3.7662,-3.7663,0,0,0,0,0,0,-3.7463,-3.7469,-3.752,-3.7495,-3.7501,-3.7504,-3.752,-3.7519,-3.7528,-3.7533,-3.7533,-3.7524,-3.7539,-3.7543,-3.7575,-3.7595,-3.7556,-3.7558,-3.7658,-3.766,-3.7662,-3.7691,0,0,0,0,0,0,-3.7461,-3.7469,-3.7485,-3.7496,-3.7503,-3.7548,-3.7521,-3.7521,-3.7532,-3.753,-3.7541,-3.7541,-3.7538,-3.7572,-3.7577,-3.7598,-3.756,-3.7656,-3.7659,-3.7662,-3.7689,-3.7694,-3.7699,0,0,0,0,0,-3.7458,-3.7491,-3.7486,-3.7492,-3.7523,-3.7549,-3.7553,-3.7549,-3.7534,-3.755,-3.7553,-3.7541,-3.7593,-3.7575,-3.7581,-3.7602,-3.7655,-3.7658,-3.7661,-3.7686,-3.7693,-3.7699,0,0,0,0,0,0,-3.7482,-3.7493,-3.7486,-3.7524,-3.7536,-3.7546,-3.7565,-3.7557,-3.7573,-3.757,-3.7564,-3.7567,-3.76,-3.7605,-3.7585,-3.7643,-3.7621,-3.7626,-3.7638,-3.7645,-3.765,-3.7647,-3.7561,0,0,0,0,0,-3.7492,-3.7513,-3.7521,-3.7554,-3.756,-3.7562,-3.7573,-3.757,-3.7581,-3.7586,-3.7591,-3.7603,-3.7621,-3.7634,-3.7651,-3.769,-3.7691,-3.7708,-3.7713,-3.7717,-3.7721,-3.7741,-3.7747,-3.7674,-3.7674,-3.7674,0,0,-3.7511,-3.752,-3.7534,-3.7559,-3.7567,-3.7589,-3.7566,-3.759,-3.7605,-3.7589,-3.7619,-3.7624,-3.7636,-3.7671,-3.7687,-3.7676,-3.7742,-3.7722,-3.7725,-3.7726,-3.7745,-3.7752,-3.7758,-3.7676,-3.7676,-3.7676,0,0,-3.7558,-3.7568,-3.7595,-3.7605,-3.7619,-3.762,-3.7627,-3.7638,-3.764,-3.7671,-3.7659,-3.7677,-3.771,-3.7719,-3.7727,-3.7779,-3.7768,-3.7785,-3.7812,-3.7831,-3.7837,-3.7842,-3.7858,-3.7865,-3.7789,-3.7789,-3.7789,0,-3.7581,-3.7613,-3.7611,-3.7635,-3.7646,-3.7634,-3.7661,-3.767,-3.7689,-3.7696,-3.7685,-3.7725,-3.7733,-3.7769,-3.7782,-3.779,-3.7796,-3.7782,-3.7836,-3.7841,-3.7846,-3.7862,-3.7868,-3.7791,-3.779,-3.779,-3.779,0,-3.764,-3.7662,-3.7683,-3.7702,-3.7715,-3.7741,-3.7742,-3.7756,-3.7751,-3.7753,-3.7784,-3.7793,-3.7812,-3.7821,-3.7816,-3.7857,-3.7849,-3.7837,-3.7815,-3.7855,-3.7869,-3.7876,-3.7793,-3.7793,-3.7792,-3.7792,0,0,-3.77,-3.7718,-3.7725,-3.7733,-3.7748,-3.7765,-3.7791,-3.781,-3.7821,-3.7835,-3.7855,-3.7883,-3.7872,-3.7882,-3.7879,-3.7897,-3.7935,-3.7882,-3.7882,-3.789,-3.7978,-3.7985,-3.7992,-3.7929,-3.793,-3.7931,-3.7976,0,-3.7746,-3.779,-3.7789,-3.783,-3.785,-3.784,-3.7861,-3.7873,-3.7876,-3.7893,-3.7896,-3.7916,-3.7901,-3.7906,-3.7923,-3.7927,-3.7952,-3.7924,-3.7946,-3.7947,-3.7941,-3.8,-3.8008,-3.805,-3.7982,-3.7983,-3.7984,0,-3.7805,-3.7822,-3.7865,-3.7876,-3.7884,-3.7904,-3.7921,-3.7938,-3.7951,-3.7952,-3.7963,-3.7958,-3.7983,-3.7962,-3.7995,-3.7976,-3.7985,-3.7989,-3.799,-3.799,-3.7966,-3.8,-3.8064,-3.8069,-3.7993,-3.7992,-3.7992,0,-3.7843,-3.7876,-3.7905,-3.7913,-3.7928,-3.7942,-3.7948,-3.7959,-3.7971,-3.7986,-3.7993,-3.8011,-3.802,-3.8034,-3.8033,-3.8018,-3.8066,-3.8045,-3.8066,-3.8066,-3.8075,-3.8074,-3.8139,-3.8085,-3.8085,-3.8085,-3.8085,0,-3.7893,-3.792,-3.7922,-3.794,-3.7969,-3.7968,-3.7996,-3.8001,-3.8012,-3.803,-3.8023,-3.804,-3.8038,-3.8056,-3.8055,-3.8082,-3.8087,-3.8087,-3.8086,-3.8087,-3.8086,-3.8091,-3.8087,-3.8086,-3.8086,-3.8086,-3.8085,0,-3.7939,-3.7943,-3.7974,-3.7986,-3.7989,-3.801,-3.8019,-3.8036,-3.8039,-3.8062,-3.8068,-3.8072,-3.8092,-3.8093,-3.8116,-3.8116,-3.8148,-3.8145,-3.8144,-3.8142,-3.8162,-3.816,-3.8231,-3.824,-3.8182,-3.8182,-3.8183,0,-3.797,-3.799,-3.8004,-3.8016,-3.8024,-3.8044,-3.8055,-3.8055,-3.8067,-3.8083,-3.8098,-3.8117,-3.8132,-3.8165,-3.8169,-3.8187,-3.8183,-3.8207,-3.8185,-3.8184,-3.8181,-3.8179,-3.818,-3.821,-3.8211,-3.8211,-3.8212,0,-3.8024,-3.8025,-3.8043,-3.8061,-3.8075,-3.8089,-3.8102,-3.8112,-3.8113,-3.8128,-3.8148,-3.816,-3.8184,-3.8203,-3.822,-3.8226,-3.8218,-3.8219,-3.8224,-3.8223,-3.8221,-3.8221,-3.8153,-3.8216,-3.8216,-3.8216,-3.8215,-3.8215,-3.8063,-3.8079,-3.8092,-3.8111,-3.8122,-3.8134,-3.815,-3.8155,-3.8173,-3.8192,-3.8191,-3.8213,-3.8225,-3.8247,-3.8255,-3.8272,-3.8264,-3.8272,-3.8273,-3.8275,-3.8276,-3.822,-3.8275,-3.8275,-3.8275,-3.8275,-3.8275,0,-3.8115,-3.8122,-3.8141,-3.8159,-3.8175,-3.8168,-3.8182,-3.8195,-3.8215,-3.8227,-3.8242,-3.8265,-3.8284,-3.829,-3.8308,-3.832,-3.8317,-3.8325,-3.8323,-3.8324,-3.8284,-3.8276,-3.8327,-3.8327,-3.8327,-3.8327,-3.8327,-3.8327,-3.8144,-3.8171,-3.8174,-3.8206,-3.8213,-3.8236,-3.8244,-3.8255,-3.8264,-3.8291,-3.8306,-3.8311,-3.832,-3.8339,-3.8355,-3.8357,-3.8362,-3.8371,-3.8371,-3.8332,-3.8327,-3.8322,-3.8315,-3.8373,-3.8373,-3.841,-3.841,-3.841]},{"header":{"parameterUnit":"m.s-1","parameterCategory":1,"la1":30.2991,"la2":30.254,"lo1":-89.0895,"lo2":-89.0444,"dy":0.0017,"dx":0.0017,"nx":28,"ny":28,"refTime":"2025-07-25T03:00:00:Z","depth":0,"parameterNumber":3,"parameterNumberName":"V-component_of_WINDS"},"data":[0,0,0,0,0,0,0,0,0,0,0,0,0,0,0,0,0,0,0,0,0,0,0,0,0,0,0,0,0,0,0,0,0,0,0,0,0,0,0,0,0,0,0,0,0,0,0,0,0,0,0,0,0,0,0,0,0,0,1.7973,1.7972,0,1.7876,1.7875,1.7874,1.7843,1.7844,1.7844,1.7844,1.7739,1.7735,1.7732,0,0,0,0,0,0,0,0,0,0,0,0,0,1.813,1.8127,1.7973,1.7972,1.7971,1.7876,1.7875,1.7873,1.7843,1.7844,1.7844,1.7845,1.774,1.7736,1.7732,0,0,0,0,0,0,0,0,0,0,0,0,0,1.805,1.8126,1.7974,1.7945,1.7941,1.7876,1.7875,1.7873,1.7843,1.7844,1.7844,1.7845,1.7741,1.7736,1.7731,1.7687,0,0,1.7716,1.7714,0,0,0,0,0,0,0,0,1.8054,1.8044,1.795,1.7946,1.7942,1.7873,1.7891,1.781,1.7843,1.788,1.7844,1.7845,1.7782,1.7774,1.7754,1.7682,1.7677,1.7716,1.7713,1.7711,1.771,0,0,0,0,0,0,0,1.806,1.8048,1.7935,1.7949,1.7944,1.7935,1.7925,1.7875,1.7828,1.7877,1.7874,1.7863,1.778,1.7759,1.7751,1.7676,1.7716,1.7712,1.7709,1.7707,1.7565,1.7564,0,0,0,0,0,0,1.8071,1.8053,1.7938,1.7932,1.8001,1.7932,1.792,1.7894,1.7828,1.7819,1.7863,1.7862,1.7767,1.7757,1.7747,1.7692,1.7711,1.7706,1.7704,1.7566,1.7565,1.7564,0,0,0,0,0,0,1.8074,1.8061,1.7942,1.7992,1.7976,1.7928,1.7899,1.7892,1.787,1.7818,1.7809,1.785,1.7767,1.7754,1.7703,1.7688,1.7704,1.77,1.7567,1.7565,1.7564,1.7581,0,0,0,0,0,0,1.8079,1.8062,1.8046,1.7992,1.7973,1.79,1.7898,1.7889,1.7863,1.7861,1.7804,1.7795,1.7766,1.7711,1.7698,1.7682,1.7696,1.7568,1.7566,1.7564,1.7582,1.7581,1.758,0,0,0,0,0,1.8085,1.8053,1.8045,1.8031,1.7952,1.7899,1.7889,1.7859,1.7862,1.7844,1.7811,1.7797,1.7692,1.7706,1.7691,1.7673,1.7568,1.7566,1.7565,1.7582,1.7581,1.758,0,0,0,0,0,0,1.8103,1.8045,1.8036,1.7985,1.7948,1.7894,1.7871,1.7858,1.7817,1.7817,1.7779,1.7767,1.7719,1.7691,1.7707,1.7628,1.763,1.7625,1.7648,1.7646,1.7645,1.7653,1.7692,0,0,0,0,0,1.8102,1.8066,1.8016,1.7977,1.7959,1.7918,1.7894,1.7875,1.7834,1.7817,1.778,1.7739,1.7697,1.767,1.7629,1.7578,1.7566,1.7559,1.7558,1.7557,1.7553,1.7527,1.7523,1.7557,1.7557,1.7557,0,0,1.8098,1.8062,1.8041,1.798,1.7948,1.7911,1.7905,1.7865,1.7837,1.781,1.7761,1.7732,1.7684,1.7634,1.761,1.7609,1.7542,1.7555,1.7555,1.7551,1.7524,1.7521,1.7518,1.7556,1.7556,1.7557,0,0,1.8072,1.8041,1.8006,1.7975,1.7929,1.7903,1.7895,1.7844,1.7825,1.7775,1.7755,1.772,1.7648,1.7616,1.759,1.7555,1.7541,1.7543,1.7537,1.7512,1.7509,1.7506,1.7495,1.7491,1.7539,1.7539,1.7539,0,1.8072,1.8017,1.7988,1.7951,1.7925,1.7902,1.7866,1.7837,1.7779,1.7761,1.7762,1.7673,1.7639,1.7582,1.7574,1.7553,1.7543,1.7549,1.7512,1.7509,1.7506,1.7495,1.7491,1.754,1.754,1.754,1.7539,0,1.802,1.7982,1.7959,1.7907,1.7878,1.7841,1.7806,1.7781,1.7764,1.7738,1.7689,1.7648,1.7598,1.7583,1.7565,1.7524,1.7526,1.752,1.752,1.7504,1.7493,1.7488,1.7541,1.754,1.754,1.754,0,0,1.8001,1.7936,1.7928,1.7905,1.7854,1.7823,1.7786,1.774,1.7719,1.768,1.7648,1.759,1.7585,1.7556,1.7534,1.7512,1.7489,1.7509,1.7507,1.7507,1.7442,1.7447,1.7443,1.748,1.7479,1.7478,1.7447,0,1.797,1.7904,1.7878,1.7824,1.7789,1.7768,1.7735,1.77,1.7675,1.7641,1.7613,1.7573,1.7569,1.7551,1.7528,1.7497,1.7475,1.7499,1.7449,1.7447,1.7462,1.7437,1.7441,1.7413,1.7442,1.7441,1.744,0,1.7923,1.7887,1.783,1.7786,1.777,1.7741,1.7699,1.7667,1.7626,1.761,1.7579,1.756,1.752,1.7524,1.7469,1.7485,1.7463,1.7445,1.7443,1.7437,1.7443,1.743,1.7403,1.74,1.7433,1.7434,1.7434,0,1.7916,1.7853,1.7812,1.7792,1.7739,1.772,1.7696,1.7657,1.7632,1.7594,1.7578,1.7535,1.7512,1.7479,1.7449,1.7455,1.7397,1.7398,1.7382,1.7383,1.737,1.7371,1.734,1.7356,1.7356,1.7356,1.7356,0,1.7883,1.785,1.7809,1.7783,1.7745,1.7716,1.7678,1.7653,1.7619,1.7588,1.7566,1.7537,1.75,1.7466,1.7442,1.74,1.7389,1.7375,1.7369,1.7376,1.7379,1.7361,1.7362,1.7355,1.7355,1.7355,1.7355,0,1.7869,1.784,1.7794,1.7748,1.7736,1.771,1.7671,1.7645,1.762,1.7581,1.757,1.7531,1.749,1.7458,1.7403,1.7387,1.7344,1.7337,1.7358,1.7355,1.7341,1.7343,1.7297,1.729,1.7311,1.7311,1.7311,0,1.785,1.7824,1.7777,1.7756,1.7733,1.7699,1.7674,1.7645,1.762,1.7574,1.7554,1.7513,1.7478,1.7413,1.7379,1.7338,1.733,1.7318,1.7324,1.7334,1.7331,1.7333,1.7331,1.7317,1.7316,1.7316,1.7316,0,1.782,1.7808,1.7774,1.7736,1.7708,1.7676,1.7643,1.7627,1.7592,1.7565,1.7524,1.7498,1.7444,1.7403,1.736,1.7334,1.7319,1.7315,1.7309,1.7317,1.7331,1.7324,1.7357,1.7316,1.7316,1.7316,1.7316,1.7316,1.7803,1.778,1.7744,1.7707,1.7681,1.7651,1.7626,1.7599,1.7566,1.7521,1.7506,1.7465,1.7427,1.7367,1.7342,1.7309,1.7307,1.7298,1.7296,1.7294,1.7296,1.7337,1.73,1.73,1.73,1.73,1.73,0,1.7772,1.7749,1.7716,1.7673,1.7644,1.7636,1.76,1.7576,1.7541,1.7508,1.7475,1.7429,1.739,1.7354,1.7314,1.7294,1.7286,1.7284,1.7285,1.728,1.7299,1.7309,1.7291,1.7291,1.7291,1.7291,1.7291,1.7291,1.7753,1.7714,1.7698,1.7645,1.7622,1.7583,1.7563,1.7536,1.751,1.7461,1.7429,1.7407,1.7373,1.733,1.7294,1.7284,1.727,1.727,1.7259,1.7277,1.7278,1.728,1.7288,1.7267,1.7267,1.7243,1.7243,1.7242]}]]